Location: D�nning
(49.2479°N, 12.8491°E)
Time: 06:27:41
(UTC+00:00)

Abrixas rocket - Pass Details

Date: 18 September 2020
Orbit: 328 x 335 km, 48.4° (Epoch: 27 October)

Event Time Altitude Azimuth Distance (km) Brightness Sun altitude
Rises 19:28:00 0° 270° (W) 2,092 6.8 -21.6°
Reaches altitude 10° 19:30:00 10° 269° (W) 1,255 5.5 -21.9°
Enters shadow 19:31:24 26° 265° (W) 692 3.8 -22.1°
